Location: Newark
(40.4500°N, 15.1500°E)
Time: 07:26:42
(UTC+00:00)

Starlink Launch 2 leader - Visible Passes

Search period start: 15 December 2019 00:00
Search period end: 25 December 2019 00:00
Orbit: 279 x 281 km, 53.0° (Epoch: 13 November)

Date Brightness Start Highest point End Pass type
(mag) Time Alt. Az. Time Alt. Az. Time Alt. Az.
19 Dec 5.0 17:09:49 10° S 17:10:11 12° SSE 17:10:11 12° SSE visible
20 Dec 3.9 17:11:01 10° SSW 17:12:30 26° S 17:12:30 26° S visible
21 Dec 2.9 17:12:44 10° SW 17:14:45 55° SW 17:14:45 55° SW visible
22 Dec 3.4 17:14:46 10° WSW 17:16:54 39° NW 17:16:54 39° NW visible
23 Dec 4.3 17:17:08 10° W 17:18:59 22° NW 17:18:59 22° NW visible
24 Dec 5.0 17:19:48 10° WNW 17:21:00 14° NNW 17:21:00 14° NNW visible
